Location: *
(37.5724°S, 58.0067°E)
Time: 22:41:06
(UTC+00:00)

Cosmos 1943 Rocket - Pass Details

Date: 18 January 2021
Orbit: 810 x 845 km, 71.0° (Epoch: 25 February)

Event Time Altitude Azimuth Distance (km) Brightness Sun altitude
Rises 17:02:58 0° 216° (SW) 3,370 7.0 -16.0°
Reaches altitude 10° 17:05:47 10° 228° (SW) 2,426 6.0 -16.4°
Maximum altitude 17:10:12 25° 282° (WNW) 1,600 4.0 -17.1°
Drops below altitude 10° 17:14:36 10° 335° (NNW) 2,397 4.4 -17.7°
Enters shadow 17:16:05 - 343° (NNW) 2,873 4.7 -17.9°
